Regional Weather Roundup
Issued by NWS Newport/Morehead, NC

Current Version | Previous Version | Text Only | Print | Product List | Glossary On
Versions: 1 2 3 4 5 6 7 8 9 10 11 12 13 14 15 16 17 18 19 20 21 22 23 24 25 26 27 28 29 30 31 32 33 34 35 36 37 38 39 40 41 42 43 44 45 46 47 48 49 50
000
ASUS42 KMHX 302322
RWRMHX
WEATHER ROUNDUP FOR EASTERN NORTH CAROLINA
NATIONAL WEATHER SERVICE NEWPORT/MOREHEAD CITY NC
700 PM EDT TUE SEP 30 2014

NOTE: "FAIR" INDICATES FEW OR NO CLOUDS BELOW 12,000 FEET
WITH NO SIGNIFICANT WEATHER AND/OR OBSTRUCTIONS TO VISIBILITY

NCZ015>017-031-032-045>047-102-103-010000-
NORTH COAST

CITY           SKY/WX    TMP DP  RH WIND       PRES   REMARKS
EDENTON        CLEAR     69  64  86 CALM      29.87S
ELIZABETH CITY CLEAR     70  63  78 NE8       29.87R
KITTY HAWK     CLEAR     69  64  83 N5        29.86S
MANTEO         CLEAR     68  64  84 N8        29.87S

$$

NCZ045>047-081-094-103-104-010000-
CENTRAL COAST

CITY           SKY/WX    TMP DP  RH WIND       PRES   REMARKS
FRISCO         CLEAR     69  65  86 N8        29.84R
SWANQUARTER      N/A     70 N/A N/A N3        29.82R

$$

NCZ095-097-098-100-101-010000-
SOUTHERN COAST

CITY           SKY/WX    TMP DP  RH WIND       PRES   REMARKS
BEAUFORT       CLEAR     71  64  78 NE6       29.85R
CEDAR ISLAND     N/A     73 N/A N/A NE10G20   29.88S
JACKSONVILLE   CLEAR     74  64  71 NE6       29.84R
NEWPORT        NOT AVBL
PINEY ISLAND   CLEAR     74  66  76 NE13      29.84S HAZE
WILMINGTON     PTCLDY    75  65  70 N5        29.84R


$$

NCZ011>013-027>030-043-044-078>080-089-090>093-098-010000-
COASTAL PLAIN

CITY           SKY/WX    TMP DP  RH WIND       PRES   REMARKS
AHOSKIE        CLEAR     65  64  94 CALM      29.88S FOG
CLINTON        CLEAR     71  67  88 CALM      29.87R
ELIZABETHTOWN  CLEAR     72  65  77 CALM      29.86S
GOLDSBORO      CLEAR     73  68  86 CALM      29.85R
GREENVILLE     CLEAR     72  64  78 N5        29.89R
HAVELOCK       PTCLDY    72  65  78 NE7       29.86R
KENANSVILLE    CLEAR     70  64  80 CALM      29.87R
KINSTON        CLEAR     72  66  83 N5        29.87R
NEW BERN       CLEAR     75  64  68 CALM      29.86R
RICHLANDS      CLEAR     70  63  78 CALM      29.86R
ROANOKE RAPIDS NOT AVBL
ROCKY MOUNT    CLEAR     69  63  81 NW3       29.88R
WASHINGTON     CLEAR     70  65  83 CALM      29.87R
WHITEVILLE     CLEAR     72  65  81 CALM      29.85S

$$

AMZ130-135-150-152-154-156-158-170-250-252-270-ANZ085-086-088-633-658-670-010000-
MARINE OBSERVATIONS

STATION/POSITION TIME  TEMP    WIND        PRES    WAVE   SWELL
                       AIR SEA DIR/SP/G            HT/PER HT/PER
                 (UTC) (F)     (DEG/KT/KT) (MB)    (FT/S) (FT/S)
CHESAPEAKE LIGHT 2300   70      60/  8/  8 1012.1
BUOY 44014       2300   71 74   20/ 12/ 14 1010.6    2/ 8   2/ 8
DUCK             2300   71 73   40/ 10/ 12 1010.6
2E DUCK          2300                        N/A     2/14   2/14
OREGON INLET     2300   70 73   10/  9/ 12 1011.0
BUOY 44095       2300      74                N/A     3/ 8
20E OREGON INLET NOT AVBL
HATTERAS CG      2300   72 76   10/ 15/ 18 1010.8
DIAMOND BUOY     2300   74     350/ 17/ 21 1009.8    4/ 4   2/ 8
CAPE LOOKOUT     2300   73      20/ 10/ 11 1010.4
BEAUFORT LAB     2300   73 75   20/  5/  7 1010.1
30 SE NEW RIVER  2300   76 80   40/ 14/ 16 1009.8    3/ 5   2/ 7
5 SE WRIGHTSVILL 2300   72 76   70/  8/  8   N/A
BUOY 41002       2154   77 81  140/ 12/ 14 1007.5    3/ 6   2/ 6
BUOY 41004       2300   76 81   30/ 12/ 14 1010.1    4/ 6   3/ 6

$$



USA.gov is the U.S. government's official web portal to all federal, state and local government web resources and services.